owner,sensor,date,latitude,longitude,vertical_datum,wind_speed,wind_to_direction,wind_speed_of_gust,qcFlag 
TABS,ioos:station:wmo:42043:1,2005-03-25T16:00:00Z,28.9818,-94.9186,4.0,0.058309519,300.9636841,0.75,'11111222,11111222,11111222' 
TABS,ioos:station:wmo:42043:1,2005-03-25T16:45:00Z,28.9818,-94.9186,4.0,0.07,359.9997895,0.67,'11111222,11144222,11111222' 
TABS,ioos:station:wmo:42043:1,2005-03-25T17:00:00Z,28.9818,-94.9186,4.0,0.058309519,59.03589496,0.53,'11111222,11111222,11111222' 
TABS,ioos:station:wmo:42043:1,2005-03-25T17:30:00Z,28.9818,-94.9186,4.0,0.090553851,263.6598231,0.51,'11111222,11111222,11111222' 
TABS,ioos:station:wmo:42043:1,2005-03-25T18:00:00Z,28.9818,-94.9186,4.0,0.06,270.0,1.5,'11111222,11111222,11111222' 
TABS,ioos:station:wmo:42043:1,2005-03-25T18:30:00Z,28.9818,-94.9186,4.0,0.526307895,75.69933507,2.09,'11111222,11111222,11111222' 
TABS,ioos:station:wmo:42043:1,2005-03-25T19:00:00Z,28.9818,-94.9186,4.0,0.064031242,51.33986123,1.24,'11111222,11111222,11111222' 
TABS,ioos:station:wmo:42043:1,2005-03-25T19:30:00Z,28.9818,-94.9186,4.0,0.152970585,101.3103269,1.26,'11111222,11111222,11111222' 
TABS,ioos:station:wmo:42043:1,2005-03-25T20:00:00Z,28.9818,-94.9186,4.0,0.294278779,80.21719493,1.38,'11111222,11111222,11111222' 
TABS,ioos:station:wmo:42043:1,2005-03-25T20:30:00Z,28.9818,-94.9186,4.0,0.158113883,235.3049276,0.98,'11111222,11111222,11111222' 
TABS,ioos:station:wmo:42043:1,2005-03-25T21:00:00Z,28.9818,-94.9186,4.0,0.172046505,234.4624053,1.39,'11111222,11111222,11111222' 
TABS,ioos:station:wmo:42043:1,2005-03-25T21:30:00Z,28.9818,-94.9186,4.0,0.196977156,246.0375671,1.42,'11111222,11111222,11111222' 
TABS,ioos:station:wmo:42043:1,2005-03-25T22:00:00Z,28.9818,-94.9186,4.0,0.294278779,260.2176158,1.36,'11111222,11111222,11111222' 
TABS,ioos:station:wmo:42043:1,2005-03-25T22:30:00Z,28.9818,-94.9186,4.0,0.404969135,249.7751879,1.51,'11111222,11111222,11111222' 
TABS,ioos:station:wmo:42043:1,2005-03-25T23:00:00Z,28.9818,-94.9186,4.0,0.224722051,249.1455907,1.1,'11111222,11111222,11111222' 
TABS,ioos:station:wmo:42043:1,2005-03-25T23:30:00Z,28.9818,-94.9186,4.0,0.107703296,248.1986415,0.96,'11111222,11111222,11111222' 
TABS,ioos:station:wmo:42043:1,2005-03-26T00:00:00Z,28.9818,-94.9186,4.0,0.243310501,260.5376999,0.92,'11111222,11111222,11111222' 
TABS,ioos:station:wmo:42043:1,2005-03-26T00:30:00Z,28.9818,-94.9186,4.0,0.313847097,247.5206182,1.09,'11111222,11111222,11111222' 
TABS,ioos:station:wmo:42043:1,2005-03-26T01:00:00Z,28.9818,-94.9186,4.0,0.284429253,259.875352,0.94,'11111222,11111222,11111222' 
TABS,ioos:station:wmo:42043:1,2005-03-26T01:30:00Z,28.9818,-94.9186,4.0,0.076157731,246.8014637,0.55,'11111222,11111222,11111222' 
TABS,ioos:station:wmo:42043:1,2005-03-26T02:00:00Z,28.9818,-94.9186,4.0,0.177200451,253.610498,0.68,'11111222,11111222,11111222' 
TABS,ioos:station:wmo:42043:1,2005-03-26T02:30:00Z,28.9818,-94.9186,4.0,0.152970585,258.690094,0.89,'11111222,11111222,11111222' 
TABS,ioos:station:wmo:42043:1,2005-03-26T03:00:00Z,28.9818,-94.9186,4.0,0.247386338,255.9637894,0.96,'11111222,11111222,11111222' 
TABS,ioos:station:wmo:42043:1,2005-03-26T03:30:00Z,28.9818,-94.9186,4.0,0.136014705,252.897311,0.86,'11111222,11111222,11111222' 
TABS,ioos:station:wmo:42043:1,2005-03-26T04:00:00Z,28.9818,-94.9186,4.0,0.219317122,245.7723113,1.17,'11111222,11111222,11111222' 
TABS,ioos:station:wmo:42043:1,2005-03-26T04:30:00Z,28.9818,-94.9186,4.0,0.247386338,255.9637894,1.32,'11111222,11111222,11111222' 
TABS,ioos:station:wmo:42043:1,2005-03-26T05:00:00Z,28.9818,-94.9186,4.0,0.152970585,258.690094,0.89,'11111222,11111222,11111222' 
TABS,ioos:station:wmo:42043:1,2005-03-26T05:30:00Z,28.9818,-94.9186,4.0,0.086023253,215.5378051,1.34,'11111222,11111222,11111222' 
TABS,ioos:station:wmo:42043:1,2005-03-26T06:00:00Z,28.9818,-94.9186,4.0,0.155241747,194.9315927,1.32,'11111222,11111222,11111222' 
TABS,ioos:station:wmo:42043:1,2005-03-26T06:30:00Z,28.9818,-94.9186,4.0,0.37,251.0753998,1.18,'11111222,11111222,11111222' 
TABS,ioos:station:wmo:42043:1,2005-03-26T07:00:00Z,28.9818,-94.9186,4.0,1.191049957,285.0863187,3.36,'11111222,11111222,11111222' 
TABS,ioos:station:wmo:42043:1,2005-03-26T07:30:00Z,28.9818,-94.9186,4.0,0.108166538,213.6901992,1.15,'11111222,11111222,11111222' 
TABS,ioos:station:wmo:42043:1,2005-03-26T08:00:00Z,28.9818,-94.9186,4.0,0.165529454,244.983165,1.03,'11111222,11111222,11111222' 
TABS,ioos:station:wmo:42043:1,2005-03-26T08:30:00Z,28.9818,-94.9186,4.0,0.281602557,253.4956772,1.14,'11111222,11111222,11111222' 
TABS,ioos:station:wmo:42043:1,2005-03-26T09:00:00Z,28.9818,-94.9186,4.0,0.136014705,252.897311,0.87,'11111222,11111222,11111222' 
TABS,ioos:station:wmo:42043:1,2005-03-26T09:30:00Z,28.9818,-94.9186,4.0,0.13,247.3801879,1.3,'11111222,11111222,11111222' 
TABS,ioos:station:wmo:42043:1,2005-03-26T10:00:00Z,28.9818,-94.9186,4.0,0.139283883,248.9625382,0.9,'11111222,11111222,11111222' 
TABS,ioos:station:wmo:42043:1,2005-03-26T10:30:00Z,28.9818,-94.9186,4.0,0.080622577,240.2551883,0.59,'11111222,11111222,11111222' 
TABS,ioos:station:wmo:42043:1,2005-03-26T11:00:00Z,28.9818,-94.9186,4.0,0.02236068,206.5651995,0.41,'11111222,11111222,11111222' 
TABS,ioos:station:wmo:42043:1,2005-03-26T11:30:00Z,28.9818,-94.9186,4.0,0.01,270.0,0.24,'11111222,11111222,11111222' 
TABS,ioos:station:wmo:42043:1,2005-03-26T12:00:00Z,28.9818,-94.9186,4.0,0.170293864,86.63312629,0.7,'11111222,11111222,11111222' 
TABS,ioos:station:wmo:42043:1,2005-03-26T12:30:00Z,28.9818,-94.9186,4.0,0.053851648,248.1986415,0.64,'11111222,11111222,11111222' 
TABS,ioos:station:wmo:42043:1,2005-03-26T13:00:00Z,28.9818,-94.9186,4.0,0.08,180.0002105,0.98,'11111222,11111222,11111222' 
TABS,ioos:station:wmo:42043:1,2005-03-26T13:30:00Z,28.9818,-94.9186,4.0,0.082462113,194.0364211,0.9,'11111222,11111222,11111222' 
TABS,ioos:station:wmo:42043:1,2005-03-26T14:00:00Z,28.9818,-94.9186,4.0,0.070710678,188.1302938,1.5,'11111222,11111222,11111222' 
TABS,ioos:station:wmo:42043:1,2005-03-26T14:30:00Z,28.9818,-94.9186,4.0,0.13892444,210.2565769,1.34,'11111222,11111222,11111222' 
TABS,ioos:station:wmo:42043:1,2005-03-26T15:00:00Z,28.9818,-94.9186,4.0,0.197989899,225.0001052,1.69,'11111222,11111222,11111222' 
TABS,ioos:station:wmo:42043:1,2005-03-26T15:30:00Z,28.9818,-94.9186,4.0,0.180277564,213.6901992,1.52,'11111222,11111222,11111222' 
TABS,ioos:station:wmo:42043:1,2005-03-26T16:00:00Z,28.9818,-94.9186,4.0,0.254558441,225.0001052,2.03,'11111222,11111222,11111222' 
TABS,ioos:station:wmo:42043:1,2005-03-26T16:30:00Z,28.9818,-94.9186,4.0,0.123693169,194.0364211,1.22,'11111222,11111222,11111222' 
TABS,ioos:station:wmo:42043:1,2005-03-26T17:00:00Z,28.9818,-94.9186,4.0,0.30528675,238.3925717,1.92,'11111222,11111222,11111222' 
TABS,ioos:station:wmo:42043:1,2005-03-26T17:30:00Z,28.9818,-94.9186,4.0,0.188679623,237.9946916,1.61,'11111222,11111222,11111222' 
TABS,ioos:station:wmo:42043:1,2005-03-26T18:00:00Z,28.9818,-94.9186,4.0,0.143178211,192.0949393,1.21,'11111222,11111222,11111222' 
TABS,ioos:station:wmo:42043:1,2005-03-26T18:30:00Z,28.9818,-94.9186,4.0,0.15,180.0002105,1.34,'11111222,11111222,11111222' 
TABS,ioos:station:wmo:42043:1,2005-03-26T19:00:00Z,28.9818,-94.9186,4.0,0.117046999,199.9832703,1.27,'11111222,11111222,11111222' 
TABS,ioos:station:wmo:42043:1,2005-03-26T19:30:00Z,28.9818,-94.9186,4.0,0.212132034,171.8701271,1.51,'11111222,11111222,11111222' 
TABS,ioos:station:wmo:42043:1,2005-03-26T20:00:00Z,28.9818,-94.9186,4.0,0.255538647,210.5793658,2.07,'11111222,11111222,11111222' 
TABS,ioos:station:wmo:42043:1,2005-03-26T20:30:00Z,28.9818,-94.9186,4.0,0.362353419,242.020591,2.47,'11111222,11111222,11111222' 
TABS,ioos:station:wmo:42043:1,2005-03-26T21:00:00Z,28.9818,-94.9186,4.0,0.310644491,213.1786445,2.13,'11111222,11111222,11111222' 
TABS,ioos:station:wmo:42043:1,2005-03-26T21:30:00Z,28.9818,-94.9186,4.0,0.294108823,234.6888691,1.71,'11111222,11111222,11111222' 
TABS,ioos:station:wmo:42043:1,2005-03-26T22:00:00Z,28.9818,-94.9186,4.0,0.484664833,248.1986415,2.28,'11111222,11111222,11111222' 
TABS,ioos:station:wmo:42043:1,2005-03-26T22:30:00Z,28.9818,-94.9186,4.0,0.281780056,242.5256326,1.72,'11111222,11111222,11111222' 
TABS,ioos:station:wmo:42043:1,2005-03-26T23:00:00Z,28.9818,-94.9186,4.0,0.198494332,220.914498,1.75,'11111222,11111222,11111222' 
TABS,ioos:station:wmo:42043:1,2005-03-26T23:30:00Z,28.9818,-94.9186,4.0,0.17,180.0002105,1.32,'11111222,11111222,11111222' 
TABS,ioos:station:wmo:42043:1,2005-03-27T00:00:00Z,28.9818,-94.9186,4.0,0.072111026,213.6901992,1.2,'11111222,11111222,11111222' 
TABS,ioos:station:wmo:42043:1,2005-03-27T00:30:00Z,28.9818,-94.9186,4.0,0.123693169,165.9639998,1.28,'11111222,11111222,11111222' 
TABS,ioos:station:wmo:42043:1,2005-03-27T01:00:00Z,28.9818,-94.9186,4.0,0.181107703,186.3403874,2.23,'11111222,11111222,11111222' 
TABS,ioos:station:wmo:42043:1,2005-03-27T01:30:00Z,28.9818,-94.9186,4.0,0.174928557,210.9638946,1.86,'11111222,11111222,11111222' 
TABS,ioos:station:wmo:42043:1,2005-03-27T02:00:00Z,28.9818,-94.9186,4.0,0.143178211,204.7752931,1.38,'11111222,11111222,11111222' 
TABS,ioos:station:wmo:42043:1,2005-03-27T02:30:00Z,28.9818,-94.9186,4.0,0.196468827,194.7437388,1.42,'11111222,11111222,11111222' 
TABS,ioos:station:wmo:42043:1,2005-03-27T03:00:00Z,28.9818,-94.9186,4.0,0.121655251,170.5379104,1.68,'11111222,11111222,11111222' 
TABS,ioos:station:wmo:42043:1,2005-03-27T03:30:00Z,28.9818,-94.9186,4.0,0.183575598,209.3578954,1.62,'11111222,11111222,11111222' 
TABS,ioos:station:wmo:42043:1,2005-03-27T04:00:00Z,28.9818,-94.9186,4.0,0.148660687,160.3464324,1.42,'11111222,11111222,11111222' 
TABS,ioos:station:wmo:42043:1,2005-03-27T04:30:00Z,28.9818,-94.9186,4.0,0.194164878,145.4917682,1.38,'11111222,11111222,11111222' 
TABS,ioos:station:wmo:42043:1,2005-03-27T05:00:00Z,28.9818,-94.9186,4.0,0.170293864,139.7639462,1.1,'11111222,11111222,11111222' 
TABS,ioos:station:wmo:42043:1,2005-03-27T05:30:00Z,28.9818,-94.9186,4.0,0.140356688,175.9146032,0.94,'11111222,11111222,11111222' 
TABS,ioos:station:wmo:42043:1,2005-03-27T06:00:00Z,28.9818,-94.9186,4.0,0.186010752,143.7464575,1.54,'11111222,11111222,11111222' 
TABS,ioos:station:wmo:42043:1,2005-03-27T06:30:00Z,28.9818,-94.9186,4.0,0.262488095,107.745051,2.13,'11111222,11111222,11111222' 
TABS,ioos:station:wmo:42043:1,2005-03-27T07:00:00Z,28.9818,-94.9186,4.0,0.349284984,113.6297434,3.88,'11111222,11111222,11111222' 
TABS,ioos:station:wmo:42043:1,2005-03-27T07:30:00Z,28.9818,-94.9186,4.0,0.170293864,130.2366851,1.67,'11111222,11111222,11111222' 
TABS,ioos:station:wmo:42043:1,2005-03-27T08:00:00Z,28.9818,-94.9186,4.0,0.260768096,122.4715373,2.64,'11111222,11111222,11111222' 
TABS,ioos:station:wmo:42043:1,2005-03-27T08:30:00Z,28.9818,-94.9186,4.0,0.186815417,105.5244956,1.65,'11111222,11111222,11111222' 
TABS,ioos:station:wmo:42043:1,2005-03-27T09:00:00Z,28.9818,-94.9186,4.0,0.130384048,212.4713268,0.88,'11111222,11111222,11111222' 
TABS,ioos:station:wmo:42043:1,2005-03-27T09:30:00Z,28.9818,-94.9186,4.0,0.71063352,256.1593369,2.17,'11111222,11111222,11111222' 
TABS,ioos:station:wmo:42043:1,2005-03-27T10:00:00Z,28.9818,-94.9186,4.0,2.204223219,83.48717128,4.73,'11111222,11111222,11111222' 
TABS,ioos:station:wmo:42043:1,2005-03-27T10:30:00Z,28.9818,-94.9186,4.0,0.82097503,92.79311675,4.53,'11111222,11111222,11111222' 
TABS,ioos:station:wmo:42043:1,2005-03-27T11:00:00Z,28.9818,-94.9186,4.0,0.494772675,104.0366316,3.8,'11111222,11111222,11111222' 
TABS,ioos:station:wmo:42043:1,2005-03-27T11:30:00Z,28.9818,-94.9186,4.0,0.322024844,115.7696883,2.68,'11111222,11111222,11111222' 
TABS,ioos:station:wmo:42043:1,2005-03-27T12:00:00Z,28.9818,-94.9186,4.0,0.833846509,95.5058859,5.06,'11111222,11111222,11111222' 
TABS,ioos:station:wmo:42043:1,2005-03-27T12:30:00Z,28.9818,-94.9186,4.0,0.812219182,94.23680581,4.67,'11111222,11111222,11111222' 
TABS,ioos:station:wmo:42043:1,2005-03-27T13:00:00Z,28.9818,-94.9186,4.0,0.563205114,106.5047437,3.18,'11111222,11111222,11111222' 
TABS,ioos:station:wmo:42043:1,2005-03-27T13:30:00Z,28.9818,-94.9186,4.0,0.445982062,109.654199,3.62,'11111222,11111222,11111222' 
TABS,ioos:station:wmo:42043:1,2005-03-27T14:00:00Z,28.9818,-94.9186,4.0,0.27784888,120.2567873,2.0,'11111222,11111222,11111222' 
TABS,ioos:station:wmo:42043:1,2005-03-27T14:30:00Z,28.9818,-94.9186,4.0,0.611882342,101.3103269,5.4,'11111222,11111222,11111222' 
TABS,ioos:station:wmo:42043:1,2005-03-27T15:00:00Z,28.9818,-94.9186,4.0,0.314006369,127.2351678,2.05,'11111222,11111222,11111222' 
TABS,ioos:station:wmo:42043:1,2005-03-27T15:30:00Z,28.9818,-94.9186,4.0,0.308868904,119.0549571,2.8,'11111222,11111222,11111222' 
TABS,ioos:station:wmo:42043:1,2005-03-27T16:00:00Z,28.9818,-94.9186,4.0,0.358468967,120.141736,3.43,'11111222,11111222,11111222' 
TABS,ioos:station:wmo:42043:1,2005-03-27T16:30:00Z,28.9818,-94.9186,4.0,0.996092365,96.34059784,5.96,'11111222,11111222,11111222' 
TABS,ioos:station:wmo:42043:1,2005-03-27T17:00:00Z,28.9818,-94.9186,4.0,0.475394573,104.6212607,4.12,'11111222,11111222,11111222' 
TABS,ioos:station:wmo:42043:1,2005-03-27T17:30:00Z,28.9818,-94.9186,4.0,0.274590604,123.1116854,2.6,'11111222,11111222,11111222' 
TABS,ioos:station:wmo:42043:1,2005-03-27T18:00:00Z,28.9818,-94.9186,4.0,0.384837628,114.5675348,4.58,'11111222,11111222,11111222' 
TABS,ioos:station:wmo:42043:1,2005-03-27T18:30:00Z,28.9818,-94.9186,4.0,0.174928557,149.0365263,1.17,'11111222,11111222,11111222' 
TABS,ioos:station:wmo:42043:1,2005-03-27T19:00:00Z,28.9818,-94.9186,4.0,0.3,126.8702323,2.12,'11111222,11111222,11111222' 
TABS,ioos:station:wmo:42043:1,2005-03-27T19:30:00Z,28.9818,-94.9186,4.0,0.420475921,115.3465376,5.93,'11111222,11111222,11111222' 
TABS,ioos:station:wmo:42043:1,2005-03-27T20:00:00Z,28.9818,-94.9186,4.0,1.004041832,95.14317345,6.28,'11111222,11111222,11111222' 
TABS,ioos:station:wmo:42043:1,2005-03-27T20:30:00Z,28.9818,-94.9186,4.0,1.162755348,93.94559792,5.01,'11111222,11111222,11111222' 
TABS,ioos:station:wmo:42043:1,2005-03-27T21:00:00Z,28.9818,-94.9186,4.0,1.176137747,95.85642081,6.61,'11111222,11111222,11111222' 
TABS,ioos:station:wmo:42043:1,2005-03-27T21:30:00Z,28.9818,-94.9186,4.0,1.010049504,89.432314,5.89,'11111222,11111222,11111222' 
TABS,ioos:station:wmo:42043:1,2005-03-27T22:00:00Z,28.9818,-94.9186,4.0,1.093709285,94.72054681,5.32,'11111222,11111222,11111222' 
TABS,ioos:station:wmo:42043:1,2005-03-27T22:30:00Z,28.9818,-94.9186,4.0,0.292061637,128.0473745,2.03,'11111222,11111222,11111222' 
TABS,ioos:station:wmo:42043:1,2005-03-27T23:00:00Z,28.9818,-94.9186,4.0,0.241867732,119.7452327,3.1,'11111222,11111222,11111222' 
TABS,ioos:station:wmo:42043:1,2005-03-27T23:30:00Z,28.9818,-94.9186,4.0,0.212132034,135.0003157,1.6,'11111222,11111222,11111222' 
TABS,ioos:station:wmo:42043:1,2005-03-28T00:00:00Z,28.9818,-94.9186,4.0,0.162788206,137.4898628,1.46,'11111222,11111222,11111222' 
TABS,ioos:station:wmo:42043:1,2005-03-28T00:30:00Z,28.9818,-94.9186,4.0,0.1,143.130399,0.69,'11111222,11111222,11111222' 
TABS,ioos:station:wmo:42043:1,2005-03-28T01:00:00Z,28.9818,-94.9186,4.0,0.028284271,135.0003157,0.36,'11111222,11111222,11111222' 
TABS,ioos:station:wmo:42043:1,2005-03-28T01:30:00Z,28.9818,-94.9186,4.0,0.031622777,108.4353266,0.21,'11111222,11111222,11111222' 
TABS,ioos:station:wmo:42043:1,2005-03-28T02:00:00Z,28.9818,-94.9186,4.0,0.09,90.00042092,0.37,'11111222,11111222,11111222' 
TABS,ioos:station:wmo:42043:1,2005-03-28T02:30:00Z,28.9818,-94.9186,4.0,0.260192237,87.79698607,0.41,'11111222,11111222,11111222' 
TABS,ioos:station:wmo:42043:1,2005-03-28T03:00:00Z,28.9818,-94.9186,4.0,0.290172363,268.0250706,0.57,'11111222,11111222,11111222' 
TABS,ioos:station:wmo:42043:1,2005-03-28T03:30:00Z,28.9818,-94.9186,4.0,0.23194827,82.56818849,0.67,'11111222,11111222,11111222' 
TABS,ioos:station:wmo:42043:1,2005-03-28T04:00:00Z,28.9818,-94.9186,4.0,0.342344855,83.28975797,0.59,'11111222,11111222,11111222' 
TABS,ioos:station:wmo:42043:1,2005-03-28T04:30:00Z,28.9818,-94.9186,4.0,0.323882695,81.1189407,0.61,'11111222,11111222,11111222' 
TABS,ioos:station:wmo:42043:1,2005-03-28T05:00:00Z,28.9818,-94.9186,4.0,0.243310501,80.537279,0.5,'11111222,11111222,11111222' 
TABS,ioos:station:wmo:42043:1,2005-03-28T05:30:00Z,28.9818,-94.9186,4.0,0.503587132,83.15682167,0.86,'11111222,11111222,11111222' 
TABS,ioos:station:wmo:42043:1,2005-03-28T06:00:00Z,28.9818,-94.9186,4.0,0.212132034,81.86949574,0.77,'11111222,11111222,11111222' 
TABS,ioos:station:wmo:42043:1,2005-03-28T06:30:00Z,28.9818,-94.9186,4.0,0.02,90.00042092,0.31,'11111222,11111222,11111222' 
TABS,ioos:station:wmo:42043:1,2005-03-28T07:00:00Z,28.9818,-94.9186,4.0,0.133416641,77.00499268,0.48,'11111222,11111222,11111222' 
TABS,ioos:station:wmo:42043:1,2005-03-28T07:30:00Z,28.9818,-94.9186,4.0,0.172626765,79.99162268,1.04,'11111222,11111222,11111222' 
TABS,ioos:station:wmo:42043:1,2005-03-28T08:00:00Z,28.9818,-94.9186,4.0,0.858428797,81.96388716,1.6,'11111222,11111222,11111222' 
TABS,ioos:station:wmo:42043:1,2005-03-28T08:30:00Z,28.9818,-94.9186,4.0,1.046900186,83.41764982,1.53,'11111222,11111222,11111222' 
TABS,ioos:station:wmo:42043:1,2005-03-28T09:00:00Z,28.9818,-94.9186,4.0,1.106526095,83.77376458,1.7,'11111222,11111222,11111222' 
TABS,ioos:station:wmo:42043:1,2005-03-28T09:30:00Z,28.9818,-94.9186,4.0,0.898053451,82.32063323,1.61,'11111222,11111222,11111222' 
TABS,ioos:station:wmo:42043:1,2005-03-28T10:00:00Z,28.9818,-94.9186,4.0,0.080622577,82.8745794,0.57,'11111222,11111222,11111222' 
TABS,ioos:station:wmo:42043:1,2005-03-28T10:30:00Z,28.9818,-94.9186,4.0,0.818840644,81.57262977,1.39,'11111222,11111222,11111222' 
TABS,ioos:station:wmo:42043:1,2005-03-28T11:00:00Z,28.9818,-94.9186,4.0,0.562227712,84.89742576,1.0,'11111222,11111222,11111222' 
TABS,ioos:station:wmo:42043:1,2005-03-28T11:30:00Z,28.9818,-94.9186,4.0,0.656201189,82.1164582,1.43,'11111222,11111222,11111222' 
TABS,ioos:station:wmo:42043:1,2005-03-28T12:00:00Z,28.9818,-94.9186,4.0,0.092195445,77.47080067,0.67,'11111222,11111222,11111222' 
TABS,ioos:station:wmo:42043:1,2005-03-28T12:30:00Z,28.9818,-94.9186,4.0,0.036055513,326.3098008,0.43,'11111222,11111222,11111222' 
TABS,ioos:station:wmo:42043:1,2005-03-28T13:00:00Z,28.9818,-94.9186,4.0,0.213775583,259.2157274,0.62,'11111222,11111222,11111222' 
TABS,ioos:station:wmo:42043:1,2005-03-28T13:30:00Z,28.9818,-94.9186,4.0,0.241867732,82.8745794,0.8,'11111222,11111222,11111222' 
TABS,ioos:station:wmo:42043:1,2005-03-28T14:00:00Z,28.9818,-94.9186,4.0,0.11,359.9997895,1.02,'11111222,11144222,11111222' 
TABS,ioos:station:wmo:42043:1,2005-03-28T14:30:00Z,28.9818,-94.9186,4.0,0.547448628,80.537279,1.86,'11111222,11111222,11111222' 
TABS,ioos:station:wmo:42043:1,2005-03-28T15:00:00Z,28.9818,-94.9186,4.0,0.611882342,78.68967306,2.06,'11111222,11111222,11111222' 
TABS,ioos:station:wmo:42043:1,2005-03-28T15:30:00Z,28.9818,-94.9186,4.0,0.560892146,78.68967306,2.66,'11111222,11111222,11111222' 
TABS,ioos:station:wmo:42043:1,2005-03-28T16:00:00Z,28.9818,-94.9186,4.0,0.790759129,76.84206711,2.77,'11111222,11111222,11111222' 
TABS,ioos:station:wmo:42043:1,2005-03-28T16:30:00Z,28.9818,-94.9186,4.0,0.61,79.61074556,2.77,'11111222,11111222,11111222' 
TABS,ioos:station:wmo:42043:1,2005-03-28T17:00:00Z,28.9818,-94.9186,4.0,1.463283978,79.76480025,2.98,'11111222,11111222,11111222' 
TABS,ioos:station:wmo:42043:1,2005-03-28T17:30:00Z,28.9818,-94.9186,4.0,1.076893681,79.83751965,2.93,'11111222,11111222,11111222' 
TABS,ioos:station:wmo:42043:1,2005-03-28T18:00:00Z,28.9818,-94.9186,4.0,1.017889974,79.24163715,3.95,'11111222,11111222,11111222' 
TABS,ioos:station:wmo:42043:1,2005-03-28T18:30:00Z,28.9818,-94.9186,4.0,1.619413474,81.1189407,3.53,'11111222,11111222,11111222' 
TABS,ioos:station:wmo:42043:1,2005-03-28T19:00:00Z,28.9818,-94.9186,4.0,1.355175265,78.93842249,3.44,'11111222,11111222,11111222' 
TABS,ioos:station:wmo:42043:1,2005-03-28T19:30:00Z,28.9818,-94.9186,4.0,0.81394103,79.37994864,3.41,'11111222,11111222,11111222' 
TABS,ioos:station:wmo:42043:1,2005-03-28T20:00:00Z,28.9818,-94.9186,4.0,0.395600809,73.85527805,2.15,'11111222,11111222,11111222' 
TABS,ioos:station:wmo:42043:1,2005-03-28T20:30:00Z,28.9818,-94.9186,4.0,0.080622577,330.2549778,2.29,'11111222,11111222,11111222' 
TABS,ioos:station:wmo:42043:1,2005-03-28T21:00:00Z,28.9818,-94.9186,4.0,0.180277564,56.30959034,1.88,'11111222,11111222,11111222' 
TABS,ioos:station:wmo:42043:1,2005-03-28T21:30:00Z,28.9818,-94.9186,4.0,0.21023796,64.65346241,2.56,'11111222,11111222,11111222' 
TABS,ioos:station:wmo:42043:1,2005-03-28T22:00:00Z,28.9818,-94.9186,4.0,0.30016662,60.01800982,1.87,'11111222,11111222,11111222' 
TABS,ioos:station:wmo:42043:1,2005-03-28T22:30:00Z,28.9818,-94.9186,4.0,0.155563492,44.99968431,2.26,'11111222,11111222,11111222' 
TABS,ioos:station:wmo:42043:1,2005-03-28T23:00:00Z,28.9818,-94.9186,4.0,0.611882342,78.68967306,2.11,'11111222,11111222,11111222' 
TABS,ioos:station:wmo:42043:1,2005-03-28T23:30:00Z,28.9818,-94.9186,4.0,0.116619038,30.96347367,1.37,'11111222,11111222,11111222' 
TABS,ioos:station:wmo:42043:1,2005-03-29T00:00:00Z,28.9818,-94.9186,4.0,0.1,306.8698114,1.12,'11111222,11111222,11111222' 
TABS,ioos:station:wmo:42043:1,2005-03-29T00:30:00Z,28.9818,-94.9186,4.0,0.121655251,279.4623001,0.89,'11111222,11111222,11111222' 
TABS,ioos:station:wmo:42043:1,2005-03-29T01:00:00Z,28.9818,-94.9186,4.0,0.082462113,284.0362106,0.63,'11111222,11111222,11111222' 
TABS,ioos:station:wmo:42043:1,2005-03-29T01:30:00Z,28.9818,-94.9186,4.0,0.184390889,282.5287784,0.92,'11111222,11111222,11111222' 
TABS,ioos:station:wmo:42043:1,2005-03-29T02:00:00Z,28.9818,-94.9186,4.0,0.325576412,280.6196304,1.12,'11111222,11111222,11111222' 
TABS,ioos:station:wmo:42043:1,2005-03-29T02:30:00Z,28.9818,-94.9186,4.0,0.282842712,278.1300833,1.72,'11111222,11111222,11111222' 
TABS,ioos:station:wmo:42043:1,2005-03-29T03:00:00Z,28.9818,-94.9186,4.0,0.133416641,282.9945864,1.81,'11111222,11111222,11111222' 
TABS,ioos:station:wmo:42043:1,2005-03-29T03:30:00Z,28.9818,-94.9186,4.0,0.128062485,308.6597179,2.15,'11111222,11111222,11111222' 
TABS,ioos:station:wmo:42043:1,2005-03-29T04:00:00Z,28.9818,-94.9186,4.0,0.1,323.1299781,2.1,'11111222,11111222,11111222' 
TABS,ioos:station:wmo:42043:1,2005-03-29T04:30:00Z,28.9818,-94.9186,4.0,0.171172428,276.7098211,1.18,'11111222,11111222,11111222' 
TABS,ioos:station:wmo:42043:1,2005-03-29T05:00:00Z,28.9818,-94.9186,4.0,0.107703296,291.8013585,1.54,'11111222,11111222,11111222' 
TABS,ioos:station:wmo:42043:1,2005-03-29T05:30:00Z,28.9818,-94.9186,4.0,0.114017543,344.7447065,1.89,'11111222,11111222,11111222' 
TABS,ioos:station:wmo:42043:1,2005-03-29T06:00:00Z,28.9818,-94.9186,4.0,0.199248588,72.47405169,1.47,'11111222,11111222,11111222' 
TABS,ioos:station:wmo:42043:1,2005-03-29T06:30:00Z,28.9818,-94.9186,4.0,0.130384048,274.3986951,1.78,'11111222,11111222,11111222' 
TABS,ioos:station:wmo:42043:1,2005-03-29T07:00:00Z,28.9818,-94.9186,4.0,0.155241747,284.9313823,1.06,'11111222,11111222,11111222' 
TABS,ioos:station:wmo:42043:1,2005-03-29T07:30:00Z,28.9818,-94.9186,4.0,0.082462113,284.0362106,0.89,'11111222,11111222,11111222' 
TABS,ioos:station:wmo:42043:1,2005-03-29T08:00:00Z,28.9818,-94.9186,4.0,0.212132034,261.8699167,1.23,'11111222,11111222,11111222' 
TABS,ioos:station:wmo:42043:1,2005-03-29T08:30:00Z,28.9818,-94.9186,4.0,0.130384048,274.3986951,0.77,'11111222,11111222,11111222' 
TABS,ioos:station:wmo:42043:1,2005-03-29T09:00:00Z,28.9818,-94.9186,4.0,0.251793566,276.8427574,1.13,'11111222,11111222,11111222' 
TABS,ioos:station:wmo:42043:1,2005-03-29T09:30:00Z,28.9818,-94.9186,4.0,0.06,270.0,0.87,'11111222,11111222,11111222' 
TABS,ioos:station:wmo:42043:1,2005-03-29T10:00:00Z,28.9818,-94.9186,4.0,0.219544984,300.0685125,2.21,'11111222,11111222,11111222' 
TABS,ioos:station:wmo:42043:1,2005-03-29T10:30:00Z,28.9818,-94.9186,4.0,0.241867732,277.1249997,1.4,'11111222,11111222,11111222' 
TABS,ioos:station:wmo:42043:1,2005-03-29T11:00:00Z,28.9818,-94.9186,4.0,0.076157731,293.1985363,1.22,'11111222,11111222,11111222' 